Capri, Italy

1:48 PM CEST on March 28, 2017 (GMT +0200)
Capri

Weather History for LIQC - September, 2013

Change the Weather History Date:

Friday, September 6, 2013

  Actual Average (LIRN) Record (LIRN)
Temperature  
Mean Temperature 81 °F -  
Max Temperature 91 °F 79 °F 87 °F (2008)
Min Temperature 71 °F 63 °F 51 °F (2007)
Cooling Degree Days 16    
Growing Degree Days 31 (Base 50)    
Moisture  
Dew Point 72 °F    
Average Humidity 77    
Maximum Humidity 100    
Minimum Humidity 38    
Precipitation  
Precipitation 0.00 in - - ()
Sea Level Pressure  
Sea Level Pressure 29.96 in    
Wind  
Wind Speed 1 mph ()    
Max Wind Speed 5 mph    
Max Gust Speed -    
Visibility 10.3 miles    
Events      
Averages and records for this station are not official NWS values.
T = Trace of Precipitation, MM = Missing Value Source: Averaged Metar Reports

Daily Weather History Graph

Daily Weather History Graph

Search for Another Location

Airport or City:

Trip Planner

Search our weather history database for the weather conditions in past years. The results will help you decide how hot, cold, wet, or windy it might be!

Date:

Astronomy

Sep. 06, 2013 Rise Set
Actual Time 6:35 AM CEST 7:27 PM CEST
Civil Twilight 6:07 AM CEST 7:54 PM CEST
Nautical Twilight 5:34 AM CEST 8:27 PM CEST
Astronomical Twilight 5:00 AM CEST 9:01 PM CEST
Moon 7:30 AM CEST (9/6) 7:41 PM CEST (9/6)
Length of Visible Light 13h 47m
Length of Day
12h 51m
New Moon, 1% of the Moon is Illuminated
Sep 6
New Moon
Sep 12
First Quarter
Sep 19
Full
Sep 27
Last Quarter
Oct 5
New

Hourly Weather History & Observations

Time (CEST) Temp. Heat Index Dew Point Humidity Pressure Visibility Wind Dir Wind Speed Gust Speed Precip Events Conditions
2:00 AM 73 °F - 64 °F 66% 29.99 in 6 mi Calm Calm - -  
5:00 AM 72 °F - 69 °F 88% 29.96 in 6 mi Calm Calm - -  
5:55 AM 71.6 °F - 71.6 °F 100% 29.95 in - North - - N/A   Clear
6:55 AM 71.6 °F - 71.6 °F 100% 29.95 in - North - - N/A   Clear
7:55 AM 71.6 °F - 71.6 °F 100% 29.95 in - North - - N/A   Clear
8:00 AM 72 °F - 72 °F 98% 29.96 in 12 mi Calm Calm - -  
8:55 AM 73.4 °F - 73.4 °F 100% 29.98 in - North - - N/A   Clear
9:55 AM 75.2 °F - 73.4 °F 94% 29.95 in - North - - N/A   Clear
10:55 AM 82.4 °F 82.9 °F 60.8 °F 48% 29.95 in - North - - N/A   Clear
11:00 AM 82 °F - 61 °F 38% 29.95 in 12 mi North 3.5 mph - -  
11:55 AM 82.4 °F 85.4 °F 68.0 °F 62% 29.95 in - North - - N/A   Clear
12:55 PM 84.2 °F 88.4 °F 69.8 °F 62% 29.95 in - North - - N/A   Clear
1:55 PM 87.8 °F 93.8 °F 71.6 °F 58% 29.95 in - North - - N/A   Clear
2:00 PM 88 °F - 72 °F 49% 29.94 in 12 mi North 2.3 mph - -  
2:55 PM 87.8 °F 97.6 °F 75.2 °F 66% 29.95 in - North - - N/A   Clear
3:55 PM 89.6 °F 99.8 °F 75.2 °F 62% 29.95 in - North - - N/A   Clear
4:55 PM 91.4 °F 105.1 °F 77.0 °F 63% 29.95 in - North - - N/A   Clear
5:00 PM 91 °F - 77 °F 55% 29.94 in 12 mi North 4.6 mph - -  
5:55 PM 89.6 °F 99.8 °F 75.2 °F 62% 29.95 in - North - - N/A   Clear
6:55 PM 86.0 °F 93.4 °F 73.4 °F 66% 29.95 in - North - - N/A   Clear
8:55 PM 78.8 °F - 73.4 °F 83% 29.95 in - North - - N/A   Clear
9:55 PM 75.2 °F - 75.2 °F 100% 29.98 in - North - - N/A   Clear
10:55 PM 75.2 °F - 75.2 °F 100% 29.98 in - North - - N/A   Clear
11:00 PM 75 °F - 75 °F 100% 29.96 in 12 mi North 2.3 mph - -  
11:55 PM 75.2 °F - 75.2 °F 100% 29.98 in - North - - N/A   Clear